sat.trackr.live / text

‹ back to catalog

STARLINK-4053

NORAD 53536 · 2022-101K

PAYLOAD ACTIVE UNKNOWN

§ Identity

Operator
Country
US
Launch date
2022-08-19
Launch site
AFETR
Launch vehicle
Mass (kg)
RCS (m²)

Purposes: comms

External: N2YO · Heavens-Above · Gunter

§ Orbital elements

Epoch: 2026-09-20T00:22:49.001088Z

Period
94.01 min
Inclination
53.1596°
Eccentricity
0.0001242
Mean motion
15.31723515 rev/d
Perigee alt
469.8 km
Apogee alt
471.5 km
Semi-major
6,848.8 km
B*
-1.0321e-4
RAAN
258.0314°
Arg perigee
92.9346°
Mean anomaly
267.1797°
Rev number
22,582

§ Raw data

STARLINK-40531 53536U 22101K   26263.01584492 -.00003569  00000+0 -10321-3 0  99942 53536  53.1596 258.0314 0001242  92.9346 267.1797 15.31723515225829

JSON: /api/v1/satellites/53536 · /tle

For live sub-satellite position, see the globe view (requires WebGL).

§ Visibility from observer

Set your observer location to see the next 7 days of passes ≥ 10°. The values pass through the URL so the page stays shareable.

No JS? Fill the form by hand. The geolocation button needs JavaScript.